Starlink 11413

operational
NORAD ID: 62593 Int'l Des: 2025-008 Owner: SPXS Country: US Constellation: starlink
LEOCIRCULAR

About Starlink 11413

Description loading...

Live Position

Loading 3D Globe...

Upcoming Passes

Altitude History

Altitude vs Time

uPlot chart will show altitude changes over time

Two-Line Element Set

1 62593U 25008G 25305.01375702 .00117849 00000-0 90782-3 0 9999
2 62593 42.9998 182.0680 0001453 280.2540 79.8164 15.70869686 46941
Epoch: Nov 1, 2025 • Age: 29 hours

Current Status

Altitude 368.0 km
Velocity 7.69 km/s
Sub-Earth Point -43.16°S, 30.3°W
Launch Date Jan 13, 2025
Age 0.7 years
Type internet

Technical Details

Classification Payload
Mass 960.00 kg
Dry Mass 910.00 kg
Total Mass 960.00 kg
Length 0.30 m
Diameter 4.10 m
Span 29.00 m
Shape Box + pan
Manufacturer SPXS
Bus Type Starlink V2MD
Phase Status In Orbit
Owner/State SPXS/US

Large Constellations

Loading constellations...